This is the latest recevied weather packets stored in our database for station/object OE3BCB-14. If no packets are shown the sender has not sent any weather packets the latest 10 day(s).
| Time | Temp. | Humidity | Pressure | Rain* | Wind** | Luminosity | Snow |
|---|---|---|---|---|---|---|---|
| 1777047975 | 26.67° C | 18% | 1016.6 hPa | - | - | 78 W/m² | - |
| 1777047673 | 26.67° C | 18% | 1016.6 hPa | - | - | 82 W/m² | - |
| 1777047370 | 27.22° C | 18% | 1016.6 hPa | - | - | 86 W/m² | - |
| 1777047068 | 27.22° C | 19% | 1016.6 hPa | - | - | 89 W/m² | - |
| 1777046765 | 26.67° C | 18% | 1016.7 hPa | - | - | 91 W/m² | - |
| 1777046463 | 26.67° C | 18% | 1016.7 hPa | - | - | 92 W/m² | - |
| 1777046161 | 26.67° C | 19% | 1016.7 hPa | - | - | 95 W/m² | - |
| 1777045858 | 27.22° C | 18% | 1016.7 hPa | - | - | 96 W/m² | - |
| 1777045556 | 27.22° C | 18% | 1016.7 hPa | - | - | 98 W/m² | - |
| 1777045253 | 27.22° C | 18% | 1016.7 hPa | - | - | 100 W/m² | - |
| 1777044951 | 27.78° C | 18% | 1016.8 hPa | - | - | 102 W/m² | - |
| 1777044649 | 27.22° C | 18% | 1016.7 hPa | - | - | 104 W/m² | - |
| 1777044346 | 27.22° C | 18% | 1016.8 hPa | - | - | 105 W/m² | - |
| 1777043137 | 27.22° C | 19% | 1016.8 hPa | - | - | 101 W/m² | - |
| 1777042834 | 28.33° C | 18% | 1016.9 hPa | - | - | 99 W/m² | - |
| 1777042532 | 28.33° C | 18% | 1016.9 hPa | - | - | 97 W/m² | - |
| 1777042229 | 27.78° C | 18% | 1017 hPa | - | - | 96 W/m² | - |
| 1777041927 | 27.22° C | 18% | 1017 hPa | - | - | 96 W/m² | - |
| 1777041624 | 27.78° C | 18% | 1017.1 hPa | - | - | 95 W/m² | - |
| 1777041322 | 28.33° C | 18% | 1017.2 hPa | - | - | 96 W/m² | - |
| 1777041020 | 28.33° C | 18% | 1017.2 hPa | - | - | 98 W/m² | - |
| 1777040717 | 28.33° C | 18% | 1017.1 hPa | - | - | 102 W/m² | - |
| 1777040415 | 28.33° C | 18% | 1017.2 hPa | - | - | 109 W/m² | - |
| 1777040112 | 28.89° C | 19% | 1017.3 hPa | - | - | 120 W/m² | - |
| 1777039810 | 27.78° C | 18% | 1017.2 hPa | - | - | 138 W/m² | - |
* Rain since midnight (hover to see other rain measurements)
** Current wind speed in m/s (hover to see current wind gust speed)